Regional Weather Roundup
Issued by NWS

Home | Current Version | Previous Version | Text Only | Print | Product List | Glossary Off
Versions: 1 2 3 4 5 6 7 8 9 10 11 12 13 14 15 16 17 18 19 20 21 22 23 24 25 26 27 28 29 30 31 32 33 34 35 36 37 38 39 40 41 42 43 44 45 46 47 48 49 50

000
ASUS43 KLMK 022102
RWRKY
KENTUCKY REGIONAL WEATHER ROUNDUP
NATIONAL WEATHER SERVICE LOUISVILLE KY
400 PM EST MON MAR 02 2015

NOTE "FAIR" INDICATES FEW OR NO CLOUDS BELOW 12,000 FEET
WITH NO SIGNIFICANT WEATHER AND/OR OBSTRUCTIONS TO VISIBILITY.

KYZ001>023-026-027-061>063-070>075-022200-
WESTERN AND SOUTH CENTRAL KENTUCKY

CITY           SKY/WX    TMP DP  RH WIND       PRES   REMARKS
PADUCAH        SUNNY     40  20  44 NE13      30.40F WCI  32
HENDERSON      PTSUNNY   37  21  52 NE6       30.43F WCI  33
OWENSBORO      MOSUNNY   40  20  45 NE8       30.42F WCI  34
HOPKINSVILLE   SUNNY     43  25  50 NE10      30.37F
BOWLING GREEN  PTSUNNY   45  24  43 E7        30.39F
GLASGOW        NOT AVBL
$$

KYZ024-025-028>034-038-045-046-053-022200-
NORTH CENTRAL KENTUCKY

CITY           SKY/WX    TMP DP  RH WIND       PRES   REMARKS
LOUISVILLE/SDF PTSUNNY   40  14  34 MISG      30.43F
LOUISVILLE/LOU MOSUNNY   39  13  34 E6        30.44F WCI  35
FORT KNOX      PTSUNNY   38  15  38 NE7       30.39F WCI  33
$$

KYZ035>037-039>044-047>052-055>060-089>105-022200-
NORTHEAST KENTUCKY

CITY           SKY/WX    TMP DP  RH WIND       PRES   REMARKS
LEXINGTON      SUNNY     35  22  58 N7        30.42F WCI  29
COVINGTON      PTSUNNY   35  14  42 N3        30.44S
FRANKFORT      SUNNY     36  18  48 CALM      30.42S
$$

KYZ054-064>069-076>088-106>120-022200-
SOUTHEAST KENTUCKY

CITY           SKY/WX    TMP DP  RH WIND       PRES   REMARKS
JACKSON        SUNNY     42  19  39 CALM      30.36F
LONDON         MOSUNNY   45  21  38 N7        30.36S
SOMERSET       NOT AVBL
MIDDLESBORO    NOT AVBL
MONTICELLO     PTCLDY    46  29  52 N6        30.40S
$$




USA.gov is the U.S. government's official web portal to all federal, state and local government web resources and services.